This is the latest recevied weather packets stored in our database for station/object K4QXN. If no packets are shown the sender has not sent any weather packets the latest 10 day(s).
| Time | Temp. | Humidity | Pressure | Rain* | Wind** | Luminosity | Snow |
|---|---|---|---|---|---|---|---|
| 1777746679 | 16.67° C | 44% | 1010.4 hPa | 0 mm | - | - | - |
| 1777746376 | 16.11° C | 45% | 1010.8 hPa | 0 mm | - | - | - |
| 1777746075 | 15.56° C | 46% | 1010.4 hPa | 0 mm | - | - | - |
| 1777745773 | 15.56° C | 46% | 1010.4 hPa | 0 mm | - | - | - |
| 1777745471 | 15.56° C | 47% | 1010.4 hPa | 0 mm | - | - | - |
| 1777745170 | 15° C | 49% | 1010.4 hPa | 0 mm | - | - | - |
| 1777744868 | 15° C | 51% | 1010.4 hPa | 0 mm | - | - | - |
| 1777744567 | 15° C | 53% | 1011.1 hPa | 0 mm | - | - | - |
| 1777744265 | 15° C | 53% | 1010.8 hPa | 0 mm | - | - | - |
| 1777743963 | 15° C | 54% | 1011.1 hPa | 0 mm | - | - | - |
| 1777743661 | 15° C | 54% | 1011.1 hPa | 0 mm | - | - | - |
| 1777743360 | 14.44° C | 53% | 1011.1 hPa | 0 mm | - | - | - |
| 1777743057 | 14.44° C | 53% | 1011.1 hPa | 0 mm | - | - | - |
| 1777742756 | 14.44° C | 53% | 1011.1 hPa | 0 mm | - | - | - |
| 1777742454 | 14.44° C | 53% | 1011.1 hPa | 0 mm | - | - | - |
| 1777742152 | 15° C | 52% | 1011.1 hPa | 0 mm | - | - | - |
| 1777741850 | 15° C | 53% | 1011.1 hPa | 0 mm | - | - | - |
| 1777741548 | 15° C | 54% | 1010.8 hPa | 0 mm | - | - | - |
| 1777741247 | 15° C | 55% | 1010.8 hPa | 0 mm | - | - | - |
| 1777740945 | 15° C | 52% | 1011.1 hPa | 0 mm | - | - | - |
| 1777740643 | 15.56° C | 54% | 1011.1 hPa | 0 mm | - | - | - |
| 1777740342 | 15.56° C | 57% | 1011.1 hPa | 0 mm | - | - | - |
| 1777739738 | 15° C | 59% | 1011.5 hPa | 0 mm | - | - | - |
| 1777739437 | 15° C | 63% | 1011.5 hPa | 0 mm | - | - | - |
| 1777739135 | 14.44° C | 64% | 1011.8 hPa | 0 mm | - | - | - |
* Rain latest hour (hover to see other rain measurements)
** Current wind speed in m/s (hover to see current wind gust speed)